Location: ???????
(55.4362°N, 38.1183°E)
Time: 03:54:27
(UTC+00:00)

N. Korean satellite - Pass Details

Date: 04 October 2021
Orbit: 450 x 495 km, 97.3° (Epoch: 15 October)

Event Time Altitude Azimuth Distance (km) Brightness Sun altitude
Rises 02:22:54 0° 20° (NNE) 2,554 10.6 -11.2°
Reaches altitude 10° 02:25:05 10° 29° (NNE) 1,677 9.8 -10.9°
Maximum altitude 02:28:26 35° 97° (E) 804 8.4 -10.4°
Drops below altitude 10° 02:31:48 10° 165° (SSE) 1,683 9.4 -9.9°
Sets 02:33:59 0° 174° (S) 2,565 10.2 -9.6°
